,,Stat5,,Stat1,,Stat2,,Stat3,,Stat4,,Wind1,,Wind1,
time,status,PA1M_AVG,status,PR1M_SUM,status,RH1M_AVG,status,SR1M_AVG,status,TA1M_AVG,status,W1dAve1m,status,W1sAve1m,
2002-04-05, 00:00:00,VALID,917.207,VALID,0,VALID,97.8156,VALID,0,VALID,21.3449,VALID,285,VALID,0.2519,
2002-04-05, 00:01:00,VALID,917.206,VALID,0,VALID,97.8474,VALID,-0.0169808,VALID,21.315,VALID,249,VALID,0.241132,
2002-04-05, 00:02:00,VALID,917.178,VALID,0,VALID,97.9186,VALID,-0.0169808,VALID,21.3317,VALID,249,VALID,0.0594952,
2002-04-05, 00:03:00,VALID,917.195,VALID,0,VALID,97.9403,VALID,0,VALID,21.3312,VALID,249,VALID,0.0194257,
2002-04-05, 00:04:00,VALID,917.179,VALID,0,VALID,97.9479,VALID,-0.0339617,VALID,21.3287,VALID,249,VALID,0,
2002-04-05, 00:05:00,VALID,917.188,VALID,0,VALID,97.9898,VALID,-0.0169808,VALID,21.3349,VALID,249,VALID,0.0160061,
2002-04-05, 00:06:00,VALID,917.162,VALID,0,VALID,98.0572,VALID,0,VALID,21.3473,VALID,249,VALID,0.113867,
2002-04-05, 00:07:00,VALID,917.153,VALID,0,VALID,97.9225,VALID,0,VALID,21.3476,VALID,198,VALID,0.245593,
2002-04-05, 00:08:00,VALID,917.145,VALID,0,VALID,97.8767,VALID,0,VALID,21.308,VALID,162,VALID,0.252673,
2002-04-05, 00:09:00,VALID,917.117,VALID,0,VALID,97.9886,VALID,0,VALID,21.3053,VALID,149,VALID,0.0493521,
2002-04-05, 00:10:00,VALID,917.088,VALID,0,VALID,98.0547,VALID,0,VALID,21.3215,VALID,149,VALID,0.152961,
2002-04-05, 00:11:00,VALID,917.073,VALID,0,VALID,98.0407,VALID,-0.0169808,VALID,21.3183,VALID,149,VALID,0.412212,
2002-04-05, 00:12:00,VALID,917.056,VALID,0,VALID,98.0839,VALID,-0.0169808,VALID,21.322,VALID,149,VALID,0.32487,
2002-04-05, 00:13:00,VALID,917.025,VALID,0,VALID,98.1106,VALID,0,VALID,21.3314,VALID,149,VALID,0.0194257,
2002-04-05, 00:14:00,VALID,917.019,VALID,0,VALID,98.178,VALID,-0.0339617,VALID,21.3481,VALID,149,VALID,0.00111607,
2002-04-05, 00:15:00,VALID,916.99,VALID,0,VALID,98.1615,VALID,0,VALID,21.3608,VALID,149,VALID,0,
2002-04-05, 00:16:00,VALID,916.972,VALID,0,VALID,98.1323,VALID,0,VALID,21.3546,VALID,149,VALID,0,
2002-04-05, 00:17:00,VALID,916.962,VALID,0,VALID,98.1475,VALID,-0.0169808,VALID,21.3516,VALID,149,VALID,0,
2002-04-05, 00:18:00,VALID,916.938,VALID,0,VALID,98.1895,VALID,-0.0339617,VALID,21.3449,VALID,133,VALID,0.0274493,
2002-04-05, 00:19:00,VALID,916.928,VALID,0,VALID,98.2098,VALID,-0.0169808,VALID,21.3543,VALID,126,VALID,0.123242,
2002-04-05, 00:20:00,VALID,916.911,VALID,0,VALID,98.1005,VALID,0,VALID,21.3549,VALID,124,VALID,0.45662,
2002-04-05, 00:21:00,VALID,916.891,VALID,0,VALID,98.0776,VALID,-0.0169808,VALID,21.3126,VALID,102,VALID,0.588108,
2002-04-05, 00:22:00,VALID,916.872,VALID,0,VALID,98.0687,VALID,0,VALID,21.2865,VALID,82,VALID,0.744141,
2002-04-05, 00:23:00,VALID,916.85,VALID,0,VALID,98.0369,VALID,-0.0169808,VALID,21.2504,VALID,68,VALID,0.789268,
2002-04-05, 00:24:00,VALID,916.833,VALID,0,VALID,98.07,VALID,-0.0169808,VALID,21.2348,VALID,48,VALID,0.63683,
2002-04-05, 00:25:00,VALID,916.819,VALID,0,VALID,98.0572,VALID,0,VALID,21.2189,VALID,44,VALID,0.530859,
2002-04-05, 00:26:00,VALID,916.809,VALID,0,VALID,98.0102,VALID,0,VALID,21.1801,VALID,56,VALID,0.344151,
2002-04-05, 00:27:00,VALID,916.815,VALID,0,VALID,98.0636,VALID,-0.0339617,VALID,21.1508,VALID,47,VALID,0.203536,
2002-04-05, 00:28:00,VALID,916.804,VALID,0,VALID,98.1513,VALID,0,VALID,21.1473,VALID,38,VALID,0.0365954,
2002-04-05, 00:29:00,VALID,916.788,VALID,0,VALID,98.1895,VALID,0,VALID,21.1669,VALID,35,VALID,0.214062,
2002-04-05, 00:30:00,VALID,916.771,VALID,0,VALID,98.2315,VALID,-0.0169808,VALID,21.1769,VALID,34,VALID,0.20847,
2002-04-05, 00:31:00,VALID,916.76,VALID,0,VALID,98.2569,VALID,-0.0169808,VALID,21.1736,VALID,34,VALID,0.306949,
2002-04-05, 00:32:00,VALID,916.73,VALID,0,VALID,98.3167,VALID,-0.0169808,VALID,21.1995,VALID,34,VALID,0.539274,
2002-04-05, 00:33:00,VALID,916.705,VALID,0,VALID,98.281,VALID,0,VALID,21.193,VALID,36,VALID,0.724826,
2002-04-05, 00:34:00,VALID,916.666,VALID,0,VALID,98.2556,VALID,0,VALID,21.1669,VALID,43,VALID,0.762723,
2002-04-05, 00:35:00,VALID,916.635,VALID,0,VALID,98.2658,VALID,0,VALID,21.1535,VALID,54,VALID,0.75465,
2002-04-05, 00:36:00,VALID,916.607,VALID,0,VALID,98.2861,VALID,-0.0169808,VALID,21.1346,VALID,58,VALID,0.684122,
2002-04-05, 00:37:00,VALID,916.59,VALID,0,VALID,98.2721,VALID,-0.0169808,VALID,21.1252,VALID,62,VALID,0.552154,
2002-04-05, 00:38:00,VALID,916.587,VALID,0,VALID,98.2874,VALID,0,VALID,21.1117,VALID,69,VALID,0.536595,
2002-04-05, 00:39:00,VALID,916.574,VALID,0,VALID,98.2899,VALID,-0.0169808,VALID,21.0923,VALID,83,VALID,0.449123,
2002-04-05, 00:40:00,VALID,916.572,VALID,0,VALID,98.3128,VALID,0,VALID,21.0794,VALID,90,VALID,0.257607,
2002-04-05, 00:41:00,VALID,916.574,VALID,0,VALID,98.3802,VALID,0,VALID,21.07,VALID,91,VALID,0.337788,
2002-04-05, 00:42:00,VALID,916.574,VALID,0,VALID,98.4298,VALID,-0.0679233,VALID,21.0969,VALID,91,VALID,0.0909288,
2002-04-05, 00:43:00,VALID,916.572,VALID,0,VALID,98.4362,VALID,-0.0849042,VALID,21.1063,VALID,91,VALID,0,
2002-04-05, 00:44:00,VALID,916.553,VALID,0,VALID,98.4603,VALID,-0.0509425,VALID,21.113,VALID,138,VALID,0.354241,
2002-04-05, 00:45:00,VALID,916.549,VALID,0,VALID,98.4603,VALID,-0.0849042,VALID,21.1265,VALID,153,VALID,0.625206,
2002-04-05, 00:46:00,VALID,916.522,VALID,0,VALID,98.4718,VALID,0.0169808,VALID,21.1114,VALID,157,VALID,0.948902,
2002-04-05, 00:47:00,VALID,916.497,VALID,0,VALID,98.4591,VALID,0,VALID,21.105,VALID,140,VALID,0.993215,
2002-04-05, 00:48:00,VALID,916.469,VALID,0,VALID,98.4705,VALID,0.0339617,VALID,21.0921,VALID,125,VALID,0.448269,
2002-04-05, 00:49:00,VALID,916.444,VALID,0,VALID,98.4349,VALID,0.0339617,VALID,21.07,VALID,123,VALID,0.864844,
2002-04-05, 00:50:00,VALID,916.445,VALID,0,VALID,98.4578,VALID,0,VALID,21.0401,VALID,127,VALID,0.347245,
2002-04-05, 00:51:00,VALID,916.43,VALID,0,VALID,98.5227,VALID,0.0339617,VALID,21.0441,VALID,128,VALID,0.17513,
2002-04-05, 00:52:00,VALID,916.415,VALID,0,VALID,98.5405,VALID,0.0169808,VALID,21.0468,VALID,146,VALID,0.29579,
2002-04-05, 00:53:00,VALID,916.398,VALID,0,VALID,98.5532,VALID,0.0169808,VALID,21.0501,VALID,143,VALID,0.0715461,
2002-04-05, 00:54:00,VALID,916.367,VALID,0,VALID,98.5659,VALID,0.0339617,VALID,21.0568,VALID,141,VALID,0.0912946,
2002-04-05, 00:55:00,VALID,916.331,VALID,0,VALID,98.5748,VALID,0.0339617,VALID,21.057,VALID,140,VALID,0.10332,
2002-04-05, 00:56:00,VALID,916.303,VALID,0,VALID,98.5786,VALID,0.0169808,VALID,21.0603,VALID,142,VALID,0.105369,
2002-04-05, 00:57:00,VALID,916.266,VALID,0,VALID,98.6015,VALID,0,VALID,21.0533,VALID,115,VALID,0.0228207,
2002-04-05, 00:58:00,VALID,916.233,VALID,0,VALID,98.6511,VALID,0,VALID,21.0829,VALID,69,VALID,0.218133,
2002-04-05, 00:59:00,VALID,916.203,VALID,0,VALID,98.6816,VALID,0,VALID,21.1219,VALID,54,VALID,0.305078,
2002-04-05, 01:00:00,VALID,916.191,VALID,0,VALID,98.6981,VALID,0,VALID,21.1607,VALID,31,VALID,0.636308,
2002-04-05, 01:01:00,VALID,916.185,VALID,0,VALID,98.6638,VALID,0,VALID,21.1543,VALID,19,VALID,0.73602,
2002-04-05, 01:02:00,VALID,916.173,VALID,0,VALID,98.6333,VALID,0,VALID,21.1279,VALID,25,VALID,0.833404,
2002-04-05, 01:03:00,VALID,916.18,VALID,0,VALID,98.5862,VALID,0.0339617,VALID,21.0794,VALID,29,VALID,0.597222,
2002-04-05, 01:04:00,VALID,916.179,VALID,0,VALID,98.5773,VALID,0,VALID,21.06,VALID,24,VALID,0.45625,
2002-04-05, 01:05:00,VALID,916.185,VALID,0,VALID,98.5951,VALID,0,VALID,21.0536,VALID,23,VALID,0.289435,
2002-04-05, 01:06:00,VALID,916.194,VALID,0,VALID,98.6231,VALID,0.0169808,VALID,21.0471,VALID,23,VALID,0.0422297,
2002-04-05, 01:07:00,VALID,916.175,VALID,0,VALID,98.6282,VALID,0.0169808,VALID,21.0541,VALID,23,VALID,0,
2002-04-05, 01:08:00,VALID,916.156,VALID,0,VALID,98.6269,VALID,0.0169808,VALID,21.0501,VALID,23,VALID,0,
2002-04-05, 01:09:00,VALID,916.152,VALID,0,VALID,98.6282,VALID,0,VALID,21.0441,VALID,23,VALID,0,
2002-04-05, 01:10:00,VALID,916.128,VALID,0,VALID,98.6409,VALID,0.0339617,VALID,21.0439,VALID,23,VALID,0,
2002-04-05, 01:11:00,VALID,916.119,VALID,0,VALID,98.6485,VALID,0.0339617,VALID,21.0608,VALID,23,VALID,0,
2002-04-05, 01:12:00,VALID,916.119,VALID,0,VALID,98.6142,VALID,0.0169808,VALID,21.0471,VALID,23,VALID,0,
2002-04-05, 01:13:00,VALID,916.123,VALID,0,VALID,98.5659,VALID,0.0169808,VALID,21.018,VALID,23,VALID,0,
2002-04-05, 01:14:00,VALID,916.112,VALID,0,VALID,98.5888,VALID,0.0169808,VALID,21.0013,VALID,23,VALID,0.0502232,
2002-04-05, 01:15:00,VALID,916.117,VALID,0,VALID,98.6473,VALID,0.0339617,VALID,21.0309,VALID,23,VALID,0.38898,
2002-04-05, 01:16:00,VALID,916.11,VALID,0,VALID,98.6638,VALID,0.0679233,VALID,21.063,VALID,27,VALID,0.545608,
2002-04-05, 01:17:00,VALID,916.104,VALID,0,VALID,98.6549,VALID,0.0169808,VALID,21.0697,VALID,31,VALID,0.622122,
2002-04-05, 01:18:00,VALID,916.095,VALID,0,VALID,98.6536,VALID,0.0169808,VALID,21.0929,VALID,31,VALID,0.524071,
2002-04-05, 01:19:00,VALID,916.085,VALID,0,VALID,98.6511,VALID,0.0169808,VALID,21.0956,VALID,37,VALID,0.567969,
2002-04-05, 01:20:00,VALID,916.067,VALID,0,VALID,98.6371,VALID,0.0169808,VALID,21.0921,VALID,43,VALID,0.546053,
2002-04-05, 01:21:00,VALID,916.048,VALID,0,VALID,98.6015,VALID,0.0169808,VALID,21.0891,VALID,38,VALID,0.621311,
2002-04-05, 01:22:00,VALID,916.029,VALID,0,VALID,98.5735,VALID,0.0339617,VALID,21.0662,VALID,48,VALID,0.535156,
2002-04-05, 01:23:00,VALID,916.022,VALID,0,VALID,98.5697,VALID,0.0509425,VALID,21.0398,VALID,25,VALID,0.293997,
2002-04-05, 01:24:00,VALID,916.019,VALID,0,VALID,98.5875,VALID,0.0169808,VALID,21.0466,VALID,17,VALID,0.604464,
2002-04-05, 01:25:00,VALID,916.019,VALID,0,VALID,98.5977,VALID,0.0169808,VALID,21.0568,VALID,6,VALID,0.774023,
2002-04-05, 01:26:00,VALID,916.012,VALID,0,VALID,98.5672,VALID,0.0169808,VALID,21.0409,VALID,358,VALID,0.372196,
2002-04-05, 01:27:00,VALID,915.995,VALID,0,VALID,98.5913,VALID,0.0169808,VALID,21.0509,VALID,344,VALID,0.481291,
2002-04-05, 01:28:00,VALID,915.989,VALID,0,VALID,98.6269,VALID,0.0169808,VALID,21.0536,VALID,5,VALID,0.543174,
2002-04-05, 01:29:00,VALID,915.976,VALID,0,VALID,98.6536,VALID,0,VALID,21.0528,VALID,10,VALID,0.647461,
2002-04-05, 01:30:00,VALID,915.957,VALID,0,VALID,98.6498,VALID,0.0169808,VALID,21.0797,VALID,3,VALID,0.617393,
2002-04-05, 01:31:00,VALID,915.938,VALID,0,VALID,98.618,VALID,0,VALID,21.0503,VALID,19,VALID,0.448191,
2002-04-05, 01:32:00,VALID,915.927,VALID,0,VALID,98.6536,VALID,0,VALID,21.0598,VALID,26,VALID,0.611909,
2002-04-05, 01:33:00,VALID,915.9,VALID,0,VALID,98.6409,VALID,-0.0169808,VALID,21.06,VALID,14,VALID,0.926432,
2002-04-05, 01:34:00,VALID,915.878,VALID,0,VALID,98.6117,VALID,0.0169808,VALID,21.0339,VALID,15,VALID,0.990625,
2002-04-05, 01:35:00,VALID,915.848,VALID,0,VALID,98.6104,VALID,0.0339617,VALID,21.0148,VALID,16,VALID,0.852865,
2002-04-05, 01:36:00,VALID,915.819,VALID,0,VALID,98.618,VALID,0.0169808,VALID,21.0021,VALID,17,VALID,0.705236,
2002-04-05, 01:37:00,VALID,915.792,VALID,0,VALID,98.6269,VALID,0.0169808,VALID,21.0245,VALID,19,VALID,0.567568,
2002-04-05, 01:38:00,VALID,915.762,VALID,0,VALID,98.6384,VALID,0.0339617,VALID,21.011,VALID,357,VALID,0.559622,
2002-04-05, 01:39:00,VALID,915.744,VALID,0,VALID,98.5951,VALID,0.0169808,VALID,20.9698,VALID,345,VALID,0.0628811,
2002-04-05, 01:40:00,VALID,915.736,VALID,0,VALID,98.5888,VALID,0.0169808,VALID,20.9402,VALID,345,VALID,0,
2002-04-05, 01:41:00,VALID,915.74,VALID,0,VALID,98.6155,VALID,-0.0169808,VALID,20.9499,VALID,345,VALID,0,
2002-04-05, 01:42:00,VALID,915.732,VALID,0,VALID,98.6371,VALID,0.0169808,VALID,20.9437,VALID,345,VALID,0.0907118,
2002-04-05, 01:43:00,VALID,915.739,VALID,0,VALID,98.6371,VALID,0.0169808,VALID,20.9502,VALID,345,VALID,0.123944,
2002-04-05, 01:44:00,VALID,915.741,VALID,0,VALID,98.6231,VALID,-0.0169808,VALID,20.944,VALID,246,VALID,0.161161,
2002-04-05, 01:45:00,VALID,915.739,VALID,0,VALID,98.6333,VALID,0.0169808,VALID,20.9238,VALID,241,VALID,0,
2002-04-05, 01:46:00,VALID,915.726,VALID,0,VALID,98.6511,VALID,0.0169808,VALID,20.9141,VALID,241,VALID,0.00105574,
2002-04-05, 01:47:00,VALID,915.71,VALID,0,VALID,98.6396,VALID,0.0339617,VALID,20.9206,VALID,209,VALID,0.142064,
2002-04-05, 01:48:00,VALID,915.692,VALID,0,VALID,98.6473,VALID,0,VALID,20.924,VALID,107,VALID,0.308488,
2002-04-05, 01:49:00,VALID,915.687,VALID,0,VALID,98.6676,VALID,0,VALID,20.9434,VALID,51,VALID,0.353002,
2002-04-05, 01:50:00,VALID,915.674,VALID,0,VALID,98.6778,VALID,0.0169808,VALID,20.9539,VALID,44,VALID,0.344984,
2002-04-05, 01:51:00,VALID,915.654,VALID,0,VALID,98.6791,VALID,0.0169808,VALID,20.9434,VALID,24,VALID,0.518012,
2002-04-05, 01:52:00,VALID,915.67,VALID,0,VALID,98.6574,VALID,0,VALID,20.9405,VALID,23,VALID,0.174696,
2002-04-05, 01:53:00,VALID,915.647,VALID,0,VALID,98.6447,VALID,0.0339617,VALID,20.941,VALID,13,VALID,0.3125,
2002-04-05, 01:54:00,VALID,915.647,VALID,0,VALID,98.6002,VALID,0.0169808,VALID,20.8786,VALID,5,VALID,0.128348,
2002-04-05, 01:55:00,VALID,915.634,VALID,0,VALID,98.5824,VALID,0.0169808,VALID,20.8532,VALID,5,VALID,0.00195313,
2002-04-05, 01:56:00,VALID,915.609,VALID,0,VALID,98.6002,VALID,0.0339617,VALID,20.8465,VALID,5,VALID,0,
2002-04-05, 01:57:00,VALID,915.587,VALID,0,VALID,98.6002,VALID,0.0339617,VALID,20.84,VALID,8,VALID,0.0380345,
2002-04-05, 01:58:00,VALID,915.568,VALID,0,VALID,98.5989,VALID,0,VALID,20.8403,VALID,48,VALID,0.456003,
2002-04-05, 01:59:00,VALID,915.546,VALID,0,VALID,98.5913,VALID,0,VALID,20.8271,VALID,51,VALID,0.860352,
2002-04-05, 02:00:00,VALID,915.539,VALID,0,VALID,98.5989,VALID,0,VALID,20.8212,VALID,59,VALID,0.994655,
2002-04-05, 02:01:00,VALID,915.549,VALID,0,VALID,98.5595,VALID,0,VALID,20.7953,VALID,61,VALID,0.865132,
2002-04-05, 02:02:00,VALID,915.564,VALID,0,VALID,98.5939,VALID,0.0339617,VALID,20.763,VALID,47,VALID,0.488387,
2002-04-05, 02:03:00,VALID,915.577,VALID,0,VALID,98.6256,VALID,0,VALID,20.7657,VALID,29,VALID,0.64822,
2002-04-05, 02:04:00,VALID,915.589,VALID,0,VALID,98.5989,VALID,0.0169808,VALID,20.7436,VALID,44,VALID,0.41875,
2002-04-05, 02:05:00,VALID,915.611,VALID,0,VALID,98.604,VALID,0.0339617,VALID,20.7275,VALID,72,VALID,0.406994,
2002-04-05, 02:06:00,VALID,915.635,VALID,0,VALID,98.5824,VALID,0.0169808,VALID,20.6882,VALID,77,VALID,0.460304,
2002-04-05, 02:07:00,VALID,915.642,VALID,0,VALID,98.6155,VALID,0,VALID,20.6785,VALID,63,VALID,0.278927,
2002-04-05, 02:08:00,VALID,915.656,VALID,0,VALID,98.6549,VALID,0.0169808,VALID,20.6852,VALID,63,VALID,0.121299,
2002-04-05, 02:09:00,VALID,915.674,VALID,0,VALID,98.6892,VALID,0.0169808,VALID,20.6919,VALID,63,VALID,0.0158155,
2002-04-05, 02:10:00,VALID,915.674,VALID,0,VALID,98.7108,VALID,0,VALID,20.6984,VALID,63,VALID,0.0372122,
2002-04-05, 02:11:00,VALID,915.676,VALID,0,VALID,98.7134,VALID,0.0169808,VALID,20.6952,VALID,63,VALID,0,
2002-04-05, 02:12:00,VALID,915.686,VALID,0,VALID,98.707,VALID,0,VALID,20.6823,VALID,63,VALID,0,
2002-04-05, 02:13:00,VALID,915.705,VALID,0,VALID,98.7134,VALID,0.0169808,VALID,20.6691,VALID,63,VALID,0,
2002-04-05, 02:14:00,VALID,915.69,VALID,0,VALID,98.7223,VALID,0.0169808,VALID,20.6755,VALID,63,VALID,0,
2002-04-05, 02:15:00,VALID,915.695,VALID,0,VALID,98.7236,VALID,0.0169808,VALID,20.6919,VALID,63,VALID,0,
2002-04-05, 02:16:00,VALID,915.676,VALID,0,VALID,98.7325,VALID,0,VALID,20.6855,VALID,63,VALID,0,
2002-04-05, 02:17:00,VALID,915.651,VALID,0,VALID,98.7147,VALID,0.0509425,VALID,20.6726,VALID,63,VALID,0,
2002-04-05, 02:18:00,VALID,915.633,VALID,0,VALID,98.7007,VALID,0,VALID,20.6599,VALID,63,VALID,0.232897,
2002-04-05, 02:19:00,VALID,915.608,VALID,0,VALID,98.6994,VALID,0,VALID,20.6532,VALID,63,VALID,0.283203,
2002-04-05, 02:20:00,VALID,915.594,VALID,0,VALID,98.7108,VALID,0.0169808,VALID,20.6435,VALID,63,VALID,0.106497,
2002-04-05, 02:21:00,VALID,915.59,VALID,0,VALID,98.7325,VALID,0,VALID,20.6499,VALID,63,VALID,0.0347222,
2002-04-05, 02:22:00,VALID,915.576,VALID,0,VALID,98.7363,VALID,-0.0169808,VALID,20.6338,VALID,63,VALID,0.0833333,
2002-04-05, 02:23:00,VALID,915.584,VALID,0,VALID,98.7287,VALID,0,VALID,20.6273,VALID,63,VALID,0.0939556,
2002-04-05, 02:24:00,VALID,915.578,VALID,0,VALID,98.7388,VALID,0,VALID,20.6144,VALID,63,VALID,0.3,
2002-04-05, 02:25:00,VALID,915.565,VALID,0,VALID,98.749,VALID,0,VALID,20.6216,VALID,66,VALID,0.212109,
2002-04-05, 02:26:00,VALID,915.572,VALID,0,VALID,98.7477,VALID,0.0169808,VALID,20.6152,VALID,106,VALID,0.435897,
2002-04-05, 02:27:00,VALID,915.557,VALID,0,VALID,98.7401,VALID,0,VALID,20.6085,VALID,111,VALID,0.389391,
2002-04-05, 02:28:00,VALID,915.555,VALID,0,VALID,98.7528,VALID,0,VALID,20.602,VALID,121,VALID,0.248561,
2002-04-05, 02:29:00,VALID,915.547,VALID,0,VALID,98.7465,VALID,0,VALID,20.5886,VALID,135,VALID,0.494727,
2002-04-05, 02:30:00,VALID,915.549,VALID,0,VALID,98.7312,VALID,0,VALID,20.5692,VALID,137,VALID,0.519942,
2002-04-05, 02:31:00,VALID,915.533,VALID,0,VALID,98.7477,VALID,0,VALID,20.5665,VALID,141,VALID,0.537007,
2002-04-05, 02:32:00,VALID,915.512,VALID,0,VALID,98.7719,VALID,0.0169808,VALID,20.5501,VALID,147,VALID,0.618243,
2002-04-05, 02:33:00,VALID,915.494,VALID,0,VALID,98.7833,VALID,-0.0169808,VALID,20.56,VALID,145,VALID,0.67079,
2002-04-05, 02:34:00,VALID,915.472,VALID,0,VALID,98.791,VALID,0,VALID,20.557,VALID,132,VALID,0.459375,
2002-04-05, 02:35:00,VALID,915.462,VALID,0,VALID,98.8151,VALID,0,VALID,20.5665,VALID,132,VALID,0.552455,
2002-04-05, 02:36:00,VALID,915.449,VALID,0,VALID,98.8215,VALID,0,VALID,20.5729,VALID,118,VALID,0.511191,
2002-04-05, 02:37:00,VALID,915.431,VALID,0,VALID,98.8418,VALID,0.0169808,VALID,20.5856,VALID,126,VALID,0.346495,
2002-04-05, 02:38:00,VALID,915.425,VALID,0,VALID,98.8456,VALID,0,VALID,20.5888,VALID,122,VALID,0.500206,
2002-04-05, 02:39:00,VALID,915.422,VALID,0,VALID,98.8469,VALID,0,VALID,20.5888,VALID,114,VALID,0.292492,
2002-04-05, 02:40:00,VALID,915.407,VALID,0,VALID,98.8596,VALID,0,VALID,20.602,VALID,124,VALID,0.539885,
2002-04-05, 02:41:00,VALID,915.406,VALID,0,VALID,98.8647,VALID,0,VALID,20.6082,VALID,137,VALID,0.792969,
2002-04-05, 02:42:00,VALID,915.413,VALID,0,VALID,98.8774,VALID,0,VALID,20.605,VALID,136,VALID,0.899306,
2002-04-05, 02:43:00,VALID,915.409,VALID,0,VALID,98.8863,VALID,0,VALID,20.6117,VALID,116,VALID,0.57728,
2002-04-05, 02:44:00,VALID,915.429,VALID,0,VALID,98.8952,VALID,0,VALID,20.6147,VALID,136,VALID,0.577009,
2002-04-05, 02:45:00,VALID,915.436,VALID,0,VALID,98.9016,VALID,0,VALID,20.6214,VALID,147,VALID,1.022,
2002-04-05, 02:46:00,VALID,915.441,VALID,0,VALID,98.8889,VALID,-0.0339617,VALID,20.6182,VALID,139,VALID,0.979519,
2002-04-05, 02:47:00,VALID,915.435,VALID,0,VALID,98.8927,VALID,0,VALID,20.6209,VALID,157,VALID,0.886102,
2002-04-05, 02:48:00,VALID,915.422,VALID,0,VALID,98.9041,VALID,0.0169808,VALID,20.6147,VALID,142,VALID,1.06461,
2002-04-05, 02:49:00,VALID,915.386,VALID,0,VALID,98.8978,VALID,0,VALID,20.6149,VALID,123,VALID,0.478516,
2002-04-05, 02:50:00,VALID,915.358,VALID,0,VALID,98.9016,VALID,-0.0169808,VALID,20.605,VALID,136,VALID,0.618832,
2002-04-05, 02:51:00,VALID,915.327,VALID,0,VALID,98.8965,VALID,0,VALID,20.602,VALID,139,VALID,0.67513,
2002-04-05, 02:52:00,VALID,915.294,VALID,0,VALID,98.8952,VALID,0.0169808,VALID,20.599,VALID,132,VALID,0.765842,
2002-04-05, 02:53:00,VALID,915.277,VALID,0,VALID,98.9105,VALID,0,VALID,20.5856,VALID,141,VALID,0.94963,
2002-04-05, 02:54:00,VALID,915.269,VALID,0,VALID,98.9092,VALID,0.0169808,VALID,20.5826,VALID,121,VALID,0.809375,
2002-04-05, 02:55:00,VALID,915.243,VALID,0,VALID,98.9181,VALID,0,VALID,20.5724,VALID,124,VALID,0.666211,
2002-04-05, 02:56:00,VALID,915.246,VALID,0,VALID,98.9105,VALID,0,VALID,20.56,VALID,146,VALID,0.961138,
2002-04-05, 02:57:00,VALID,915.233,VALID,0,VALID,98.9194,VALID,0,VALID,20.5565,VALID,115,VALID,0.764391,
2002-04-05, 02:58:00,VALID,915.227,VALID,0,VALID,98.9321,VALID,0.0169808,VALID,20.5503,VALID,147,VALID,0.551192,
2002-04-05, 02:59:00,VALID,915.226,VALID,0,VALID,98.9334,VALID,0.0339617,VALID,20.5433,VALID,139,VALID,0.673047,
2002-04-05, 03:00:00,VALID,915.221,VALID,0,VALID,98.9346,VALID,0.0169808,VALID,20.5471,VALID,136,VALID,0.749178,
2002-04-05, 03:01:00,VALID,915.207,VALID,0,VALID,98.9461,VALID,0.0339617,VALID,20.5376,VALID,117,VALID,0.335321,
2002-04-05, 03:02:00,VALID,915.184,VALID,0,VALID,98.9436,VALID,0,VALID,20.5274,VALID,101,VALID,0.49641,
2002-04-05, 03:03:00,VALID,915.167,VALID,0,VALID,98.9614,VALID,0,VALID,20.5376,VALID,104,VALID,0.404514,
2002-04-05, 03:04:00,VALID,915.161,VALID,0,VALID,98.9575,VALID,0.0169808,VALID,20.5374,VALID,120,VALID,0.891964,
2002-04-05, 03:05:00,VALID,915.159,VALID,0,VALID,98.9639,VALID,0.0339617,VALID,20.521,VALID,123,VALID,1.03757,
2002-04-05, 03:06:00,VALID,915.16,VALID,0,VALID,98.9779,VALID,0,VALID,20.5344,VALID,130,VALID,0.796664,
2002-04-05, 03:07:00,VALID,915.159,VALID,0,VALID,98.9868,VALID,0,VALID,20.5471,VALID,130,VALID,1.3883,
2002-04-05, 03:08:00,VALID,915.153,VALID,0,VALID,98.9944,VALID,0.0169808,VALID,20.5501,VALID,121,VALID,0.961965,
2002-04-05, 03:09:00,VALID,915.169,VALID,0,VALID,99.0046,VALID,0.0169808,VALID,20.5635,VALID,122,VALID,0.868331,
2002-04-05, 03:10:00,VALID,915.174,VALID,0,VALID,98.9906,VALID,0,VALID,20.5667,VALID,118,VALID,1.28927,
2002-04-05, 03:11:00,VALID,915.172,VALID,0,VALID,99.0097,VALID,0,VALID,20.5597,VALID,72,VALID,0.796669,
2002-04-05, 03:12:00,VALID,915.171,VALID,0,VALID,99.0033,VALID,0,VALID,20.5796,VALID,116,VALID,1.24848,
2002-04-05, 03:13:00,VALID,915.151,VALID,0,VALID,98.9919,VALID,0,VALID,20.5538,VALID,127,VALID,1.15055,
2002-04-05, 03:14:00,VALID,915.144,VALID,0,VALID,98.9906,VALID,0,VALID,20.5506,VALID,104,VALID,0.687054,
2002-04-05, 03:15:00,VALID,915.142,VALID,0,VALID,98.9893,VALID,0.0169808,VALID,20.5342,VALID,76,VALID,1.48787,
2002-04-05, 03:16:00,VALID,915.123,VALID,0,VALID,98.9614,VALID,0,VALID,20.486,VALID,70,VALID,1.48902,
2002-04-05, 03:17:00,VALID,915.129,VALID,0,VALID,98.9436,VALID,0,VALID,20.4569,VALID,76,VALID,1.34272,
2002-04-05, 03:18:00,VALID,915.121,VALID,0,VALID,98.9525,VALID,0,VALID,20.4248,VALID,107,VALID,0.926309,
2002-04-05, 03:19:00,VALID,915.126,VALID,0,VALID,98.9677,VALID,0,VALID,20.402,VALID,93,VALID,0.527539,
2002-04-05, 03:20:00,VALID,915.125,VALID,0,VALID,98.9741,VALID,0.0169808,VALID,20.3818,VALID,127,VALID,0.834087,
2002-04-05, 03:21:00,VALID,915.119,VALID,0,VALID,98.9423,VALID,0,VALID,20.3368,VALID,138,VALID,1.5178,
2002-04-05, 03:22:00,VALID,915.124,VALID,0,VALID,98.9334,VALID,0,VALID,20.3085,VALID,119,VALID,0.936849,
2002-04-05, 03:23:00,VALID,915.125,VALID,0,VALID,98.9601,VALID,0,VALID,20.2891,VALID,124,VALID,1.13281,
2002-04-05, 03:24:00,VALID,915.126,VALID,0,VALID,98.9588,VALID,-0.0169808,VALID,20.2633,VALID,116,VALID,1.02232,
2002-04-05, 03:25:00,VALID,915.127,VALID,0,VALID,98.9804,VALID,0,VALID,20.2466,VALID,97,VALID,1.29355,
2002-04-05, 03:26:00,VALID,915.118,VALID,0,VALID,98.997,VALID,-0.0169808,VALID,20.2568,VALID,85,VALID,0.971354,
2002-04-05, 03:27:00,VALID,915.124,VALID,0,VALID,99.016,VALID,-0.0679233,VALID,20.2638,VALID,86,VALID,0.49116,
2002-04-05, 03:28:00,VALID,915.131,VALID,0,VALID,99.0122,VALID,-0.0849042,VALID,20.2576,VALID,100,VALID,1.50021,
2002-04-05, 03:29:00,VALID,915.129,VALID,0,VALID,99.03,VALID,-0.0679233,VALID,20.2506,VALID,121,VALID,0.760938,
2002-04-05, 03:30:00,VALID,915.118,VALID,0,VALID,99.0249,VALID,-0.0679233,VALID,20.2409,VALID,116,VALID,1.22965,
2002-04-05, 03:31:00,VALID,915.114,VALID,0,VALID,99.0249,VALID,-0.101885,VALID,20.2255,VALID,127,VALID,1.52817,
2002-04-05, 03:32:00,VALID,915.101,VALID,0,VALID,99.0377,VALID,-0.0509425,VALID,20.2253,VALID,129,VALID,1.17166,
2002-04-05, 03:33:00,VALID,915.073,VALID,0,VALID,99.0377,VALID,-0.101885,VALID,20.2288,VALID,135,VALID,0.995226,
2002-04-05, 03:34:00,VALID,915.063,VALID,0,VALID,99.0313,VALID,-0.0849042,VALID,20.1932,VALID,154,VALID,1.27723,
2002-04-05, 03:35:00,VALID,915.052,VALID,0,VALID,99.0224,VALID,-0.101885,VALID,20.1905,VALID,154,VALID,1.36105,
2002-04-05, 03:36:00,VALID,915.038,VALID,0,VALID,99.0275,VALID,-0.101885,VALID,20.1582,VALID,157,VALID,0.987331,
2002-04-05, 03:37:00,VALID,915.041,VALID,0,VALID,99.0389,VALID,-0.0849042,VALID,20.1582,VALID,143,VALID,0.711149,